Regional Weather Roundup
Issued by NWS

Home | Current Version | Previous Version | Text Only | Print | Product List | Glossary Off
Versions: 1 2 3 4 5 6 7 8 9 10 11 12 13 14 15 16 17 18 19 20 21 22 23 24 25 26 27 28 29 30 31 32 33 34 35 36 37 38 39 40 41 42 43 44 45 46 47 48 49 50

000
ASUS45 KCYS 030410
RWRWY

WYOMING REGIONAL WEATHER ROUNDUP
NATIONAL WEATHER SERVICE CHEYENNE WY
900 PM MST FRI DEC 02 2016

NOTE:  "FAIR" INDICATES FEW OR NO CLOUDS BELOW 12,000 FEET
WITH NO SIGNIFICANT WEATHER AND/OR OBSTRUCTIONS TO VISIBILITY.

WYZ001-030500-
YELLOWSTONE NATIONAL PARK

CITY           SKY/WX    TMP DP  RH WIND       PRES   REMARKS
LK YELLOWSTONE   N/A     11   8  88 W5        30.11R WCI   3
W YELLOWSTONE  NOT AVBL

$$
WYZ002>013-054>058-071-098>099-030500-
NORTHERN WYOMING

CITY           SKY/WX    TMP DP  RH WIND       PRES   REMARKS
JACKSON        FAIR      10   9  92 S7        30.16R WCI   0
CODY           FAIR      30   8  39 W17G32    30.01F WCI  18
GREYBULL       FAIR      26  17  68 CALM      30.06F
WORLAND        FAIR      26  18  71 SE8       30.06F WCI  18
SHERIDAN       FAIR      19  11  70 SW8       30.00F WCI   9
BUFFALO        FAIR      24  11  57 CALM      29.99F
GILLETTE       FAIR      26  20  77 S17       30.05F WCI  13
HULETT         FAIR      28  21  74 S8        30.08F WCI  20
NEWCASTLE      FAIR      23  19  86 SE3       30.14F

$$
WYZ014>020-022>026-101>103-030500-
CENTRAL WYOMING

CITY           SKY/WX    TMP DP  RH WIND       PRES   REMARKS
BIG PINEY      FAIR       5   1  83 NE5       30.14F WCI  -4
PINEDALE       FAIR       5   1  85 N12G18    30.14S WCI -11
DUBOIS         FAIR      14   5  67 NW16G23   30.03S WCI  -2
LANDER         FAIR      19   8  62 NW3       30.06F
RIVERTON       FAIR      20  14  77 W8        30.07F WCI  10
CASPER         FAIR      16  12  84 W7        30.11F WCI   6
DOUGLAS        MOCLDY    22  20  92 CALM      30.12F

$$
WYZ021-027>030-104>119-030500-
SOUTHERN WYOMING

CITY           SKY/WX    TMP DP  RH WIND       PRES   REMARKS
EVANSTON       MOCLDY    15   7  70 SW5       30.17S WCI   8
FORT BRIDGER   FAIR      17  11  78 W9        30.19F WCI   5
ROCK SPRINGS   FAIR      13   9  84 SW12      30.16S WCI  -1
DIXON          FAIR       4   1  87 CALM      30.21R
RAWLINS        MOCLDY     8   2  76 CALM      30.14R
SARATOGA       FAIR      10  10 100 W6        30.13S WCI   1
LARAMIE        FAIR      13  11  92 S10       30.06F WCI   0
CHEYENNE       CLOUDY    24  22  91 S8        30.11F WCI  15
TORRINGTON     CLOUDY    29  23  78 SW5       30.15F WCI  24
PINE BLUFFS    FAIR      23  23 100 SW3       30.16F

$$



USA.gov is the U.S. government's official web portal to all federal, state and local government web resources and services.